CW3077 Weather Reports


Display with metric or nautical units.
time (UTC)temp
F
wind
direction
speed
MPH
gust
MPH
rain 1hr
in
rain 24hr
in
rain mn
in
humidity
%
barometer
mb
20260901003517 94 135 3.0 8.0 0.00 0.00 0.00 40 1014.5
20260901003015 94 135 2.0 5.0 0.00 0.00 0.00 40 1014.4
20260901002515 94 135 3.0 8.0 0.00 0.00 0.00 39 1014.4
20260901002015 95 135 3.0 9.0 0.00 0.00 0.00 40 1014.5
20260901001516 95 135 4.0 11.0 0.00 0.00 0.00 40 1014.4
20260901001055 95 135 4.0 10.0 0.00 0.00 0.00 39 1014.4
20260901000516 95 135 4.0 11.0 0.00 0.00 0.00 39 1014.4
20260901000015 95 135 2.0 7.0 0.00 0.00 0.00 38 1014.4
20260831235515 95 135 3.0 5.0 0.00 0.00 0.00 38 1014.4
20260831235036 95 113 4.0 10.0 0.00 0.00 0.00 38 1014.4
20260831234515 96 90 3.0 7.0 0.00 0.00 0.00 38 1014.4
20260831234015 96 90 4.0 7.0 0.00 0.00 0.00 37 1014.5
20260831233515 96 113 3.0 5.0 0.00 0.00 0.00 38 1014.5
20260831233015 96 113 3.0 9.0 0.00 0.00 0.00 37 1014.5
20260831232515 97 135 5.0 9.0 0.00 0.00 0.00 37 1014.6
20260831232015 97 90 7.0 15.0 0.00 0.00 0.00 37 1014.6
20260831231515 97 90 5.0 12.0 0.00 0.00 0.00 37 1014.7
20260831231015 97 135 6.0 13.0 0.00 0.00 0.00 38 1014.6
20260831230515 97 90 5.0 9.0 0.00 0.00 0.00 38 1014.7
20260831230015 97 135 3.0 9.0 0.00 0.00 0.00 38 1014.6
20260831225515 97 135 3.0 9.0 0.00 0.00 0.00 37 1014.6
20260831225015 97 90 4.0 11.0 0.00 0.00 0.00 36 1014.7
20260831224515 97 90 4.0 8.0 0.00 0.00 0.00 35 1014.6
20260831224015 97 135 3.0 8.0 0.00 0.00 0.00 35 1014.7
20260831223515 98 90 3.0 9.0 0.00 0.00 0.00 33 1014.7
20260831223015 98 113 4.0 11.0 0.00 0.00 0.00 35 1014.8
20260831222515 98 180 4.0 10.0 0.00 0.00 0.00 37 1014.8
20260831222035 98 113 3.0 7.0 0.00 0.00 0.00 37 1014.9
20260831221515 99 90 4.0 9.0 0.00 0.00 0.00 36 1014.9
20260831221015 99 90 5.0 11.0 0.00 0.00 0.00 35 1014.9
20260831220515 98 90 3.0 8.0 0.00 0.00 0.00 36 1014.9
20260831220015 98 158 4.0 11.0 0.00 0.00 0.00 38 1014.9
20260831215515 97 158 3.0 9.0 0.00 0.00 0.00 39 1014.9
20260831215015 97 158 2.0 6.0 0.00 0.00 0.00 40 1015.1
20260831214515 97 158 2.0 6.0 0.00 0.00 0.00 40 1015.2
20260831214015 95 158 2.0 7.0 0.00 0.00 0.00 41 1015.2
20260831213515 95 158 1.0 7.0 0.00 0.00 0.00 40 1015.2
20260831213016 97 135 3.0 10.0 0.00 0.00 0.00 39 1015.3
20260831212515 98 135 5.0 11.0 0.00 0.00 0.00 38 1015.4
20260831212015 98 158 5.0 10.0 0.00 0.00 0.00 39 1015.5
20260831211515 98 113 2.0 4.0 0.00 0.00 0.00 42 1015.5
20260831211015 98 113 2.0 5.0 0.00 0.00 0.00 41 1015.6
20260831210536 97 158 4.0 9.0 0.00 0.00 0.00 41 1015.5
20260831210015 98 158 3.0 7.0 0.00 0.00 0.00 40 1015.7
20260831205515 97 158 1.0 6.0 0.00 0.00 0.00 42 1015.7
20260831205035 96 158 1.0 3.0 0.00 0.00 0.00 42 1015.9
20260831204515 97 158 3.0 11.0 0.00 0.00 0.00 41 1016.0
20260831204015 98 158 4.0 10.0 0.00 0.00 0.00 40 1016.1
20260831203515 99 158 2.0 6.0 0.00 0.00 0.00 41 1016.2
20260831203015 99 158 3.0 8.0 0.00 0.00 0.00 41 1016.4
20260831202515 98 135 4.0 9.0 0.00 0.00 0.00 42 1016.4
20260831202015 97 113 5.0 12.0 0.00 0.00 0.00 43 1016.5
20260831201515 96 113 3.0 8.0 0.00 0.00 0.00 43 1016.5
20260831201015 97 113 2.0 6.0 0.00 0.00 0.00 43 1016.6
20260831200535 99 113 5.0 11.0 0.00 0.00 0.00 41 1016.8
20260831200015 99 158 5.0 12.0 0.00 0.00 0.00 40 1016.8
20260831195515 99 135 3.0 11.0 0.00 0.00 0.00 40 1016.8
20260831195035 99 90 4.0 10.0 0.00 0.00 0.00 40 1017.0
20260831194515 98 90 4.0 9.0 0.00 0.00 0.00 39 1017.0
20260831194015 98 135 5.0 12.0 0.00 0.00 0.00 42 1017.0
20260831193515 97 135 5.0 13.0 0.00 0.00 0.00 42 1017.0
20260831193015 96 248 3.0 7.0 0.00 0.00 0.00 44 1017.1
20260831192515 99 113 4.0 12.0 0.00 0.00 0.00 42 1017.2
20260831192017 98 158 5.0 11.0 0.00 0.00 0.00 44 1017.3
20260831191517 96 225 4.0 13.0 0.00 0.00 0.00 45 1017.3
20260831191017 97 113 4.0 8.0 0.00 0.00 0.00 43 1017.3
20260831190517 99 158 3.0 8.0 0.00 0.00 0.00 42 1017.6
20260831190017 98 158 3.0 7.0 0.00 0.00 0.00 45 1017.6
20260831185517 96 180 3.0 9.0 0.00 0.00 0.00 44 1017.6
20260831185017 98 135 3.0 10.0 0.00 0.00 0.00 45 1017.7
20260831184517 99 203 3.0 8.0 0.00 0.00 0.00 42 1017.8
20260831184017 98 135 5.0 15.0 0.00 0.00 0.00 45 1017.7
20260831183517 98 158 5.0 9.0 0.00 0.00 0.00 44 1017.7
20260831183017 96 203 3.0 8.0 0.00 0.00 0.00 47 1017.7
20260831182518 97 135 4.0 9.0 0.00 0.00 0.00 43 1017.8
20260831182017 97 158 4.0 10.0 0.00 0.00 0.00 43 1017.8
20260831181517 97 135 5.0 9.0 0.00 0.00 0.00 42 1017.9
20260831181037 96 180 4.0 10.0 0.00 0.00 0.00 43 1017.9
20260831180517 95 203 4.0 10.0 0.00 0.00 0.00 48 1017.9
20260831180017 96 135 2.0 8.0 0.00 0.00 0.00 46 1018.0
20260831175557 97 180 3.0 10.0 0.00 0.00 0.00 46 1018.1
20260831175017 96 180 3.0 10.0 0.00 0.00 0.00 47 1018.3
20260831174516 95 113 4.0 10.0 0.00 0.00 0.00 46 1018.4
20260831174037 95 135 5.0 13.0 0.00 0.00 0.00 47 1018.6
20260831173517 95 135 5.0 13.0 0.00 0.00 0.00 47 1018.5
20260831173017 96 135 4.0 13.0 0.00 0.00 0.00 44 1018.6
20260831172557 95 135 4.0 10.0 0.00 0.00 0.00 48 1018.7
20260831172016 94 158 4.0 13.0 0.00 0.00 0.00 47 1018.7
20260831171517 93 203 4.0 9.0 0.00 0.00 0.00 50 1018.8
20260831171016 95 203 3.0 8.0 0.00 0.00 0.00 47 1018.8
20260831170516 95 158 5.0 10.0 0.00 0.00 0.00 50 1018.9
20260831170017 93 135 2.0 7.0 0.00 0.00 0.00 53 1018.8
20260831165536 94 158 4.0 10.0 0.00 0.00 0.00 52 1018.8
20260831165017 93 158 2.0 7.0 0.00 0.00 0.00 54 1018.9
20260831164516 92 180 3.0 10.0 0.00 0.00 0.00 55 1018.8
20260831164016 92 158 5.0 10.0 0.00 0.00 0.00 54 1018.8
20260831163516 93 135 5.0 11.0 0.00 0.00 0.00 54 1018.7
20260831163016 92 158 4.0 10.0 0.00 0.00 0.00 56 1018.7
20260831162536 91 203 3.0 9.0 0.00 0.00 0.00 58 1018.8
20260831162016 92 180 4.0 8.0 0.00 0.00 0.00 56 1018.8
20260831161537 91 158 3.0 8.0 0.00 0.00 0.00 59 1018.9
20260831161037 90 158 2.0 8.0 0.00 0.00 0.00 60 1018.7
20260831160516 91 225 4.0 9.0 0.00 0.00 0.00 60 1018.7
20260831160037 90 203 3.0 9.0 0.00 0.00 0.00 61 1018.6
20260831155516 90 135 2.0 7.0 0.00 0.00 0.00 61 1018.8
20260831155016 88 248 3.0 9.0 0.00 0.00 0.00 64 1018.9
20260831154516 88 225 3.0 7.0 0.00 0.00 0.00 64 1018.8
20260831154016 88 135 3.0 8.0 0.00 0.00 0.00 63 1018.6
20260831153516 88 203 4.0 10.0 0.00 0.00 0.00 64 1018.9
20260831153016 88 180 3.0 7.0 0.00 0.00 0.00 65 1018.8
20260831152516 87 225 4.0 9.0 0.00 0.00 0.00 67 1018.7
20260831152018 87 158 3.0 9.0 0.00 0.00 0.00 67 1018.6
20260831151516 87 225 3.0 8.0 0.00 0.00 0.00 65 1018.6
20260831151017 87 225 3.0 8.0 0.00 0.00 0.00 69 1018.6
20260831150516 86 225 4.0 9.0 0.00 0.00 0.00 68 1018.6
20260831150036 87 180 2.0 7.0 0.00 0.00 0.00 68 1018.5
20260831145516 86 203 4.0 11.0 0.00 0.00 0.00 69 1018.6
20260831145016 86 180 4.0 16.0 0.00 0.00 0.00 69 1018.6
20260831144517 86 203 4.0 11.0 0.00 0.00 0.00 70 1018.5
20260831144016 85 203 2.0 7.0 0.00 0.00 0.00 72 1018.6
20260831143516 85 203 3.0 7.0 0.00 0.00 0.00 74 1018.4
20260831143017 84 135 3.0 8.0 0.00 0.00 0.00 74 1018.3
20260831142516 84 180 4.0 9.0 0.00 0.00 0.00 76 1018.4
20260831142036 84 180 3.0 8.0 0.00 0.00 0.00 76 1018.3
20260831141516 83 248 2.0 8.0 0.00 0.00 0.00 77 1018.2
20260831141016 83 203 2.0 6.0 0.00 0.00 0.00 78 1018.1
20260831140516 83 180 1.0 4.0 0.00 0.00 0.00 80 1018.1
20260831140016 82 248 2.0 10.0 0.00 0.00 0.00 80 1018.1
20260831135516 82 248 3.0 11.0 0.00 0.00 0.00 81 1018.0
20260831135016 82 225 3.0 7.0 0.00 0.00 0.00 81 1017.9
20260831134516 81 225 2.0 6.0 0.00 0.00 0.00 82 1017.9
20260831134016 81 248 3.0 9.0 0.00 0.00 0.00 83 1017.9
20260831133517 80 270 3.0 8.0 0.00 0.00 0.00 84 1017.9
20260831133016 80 0.0 0.0 0.00 0.00 0.00 85 1017.7
20260831132516 80 0.0 3.0 0.00 0.00 0.00 85 1017.6
20260831132016 79 203 1.0 4.0 0.00 0.00 0.00 85 1017.6
20260831131516 79 203 2.0 5.0 0.00 0.00 0.00 85 1017.6
20260831131036 79 203 2.0 7.0 0.00 0.00 0.00 86 1017.5
20260831130518 79 203 2.0 6.0 0.00 0.00 0.00 86 1017.4
20260831130036 79 225 2.0 6.0 0.00 0.00 0.00 86 1017.4
20260831125516 78 225 2.0 6.0 0.00 0.00 0.00 86 1017.4
20260831125016 78 203 2.0 4.0 0.00 0.00 0.00 86 1017.3
20260831124516 78 203 2.0 5.0 0.00 0.00 0.00 86 1017.1
20260831124016 78 225 1.0 5.0 0.00 0.00 0.00 86 1017.3
20260831123536 78 225 3.0 7.0 0.00 0.00 0.00 86 1017.2
20260831123016 78 0.0 2.0 0.00 0.00 0.00 86 1017.2
20260831122516 78 203 1.0 4.0 0.00 0.00 0.00 86 1017.3
20260831122016 78 225 2.0 8.0 0.00 0.00 0.00 86 1017.3
20260831121517 78 225 2.0 6.0 0.00 0.00 0.00 85 1017.4
20260831121016 78 225 2.0 6.0 0.00 0.00 0.00 86 1017.3
20260831120516 78 203 1.0 4.0 0.00 0.00 0.00 85 1017.2
20260831120036 78 203 2.0 6.0 0.00 0.00 0.00 85 1017.2
20260831115536 78 203 2.0 6.0 0.00 0.00 0.00 85 1017.1
20260831115036 79 203 2.0 4.0 0.00 0.00 0.00 85 1017.1
20260831114516 79 203 2.0 7.0 0.00 0.00 0.00 85 1017.2
20260831114016 79 203 2.0 4.0 0.00 0.00 0.00 84 1017.1
20260831113516 79 203 2.0 8.0 0.00 0.00 0.00 84 1017.1
20260831113016 79 225 2.0 4.0 0.00 0.00 0.00 84 1017.1
20260831112516 79 225 3.0 6.0 0.00 0.00 0.00 84 1016.9
20260831112016 79 225 2.0 6.0 0.00 0.00 0.00 84 1017.0
20260831111516 79 203 2.0 7.0 0.00 0.00 0.00 84 1017.0
20260831111016 79 225 3.0 10.0 0.00 0.00 0.00 84 1016.9
20260831110516 79 225 2.0 7.0 0.00 0.00 0.00 84 1016.8
20260831110016 79 225 3.0 8.0 0.00 0.00 0.00 84 1016.7
20260831105516 79 203 4.0 8.0 0.00 0.00 0.00 84 1016.8
20260831105016 79 203 4.0 9.0 0.00 0.00 0.00 84 1017.0
20260831104516 79 203 3.0 9.0 0.00 0.00 0.00 84 1016.9
20260831104016 79 180 3.0 8.0 0.00 0.00 0.00 84 1016.8
20260831103516 79 203 3.0 8.0 0.00 0.00 0.00 84 1016.7
20260831103016 79 225 3.0 9.0 0.00 0.00 0.00 84 1016.8
20260831102516 79 203 3.0 9.0 0.00 0.00 0.00 84 1016.9
20260831102016 79 225 3.0 8.0 0.00 0.00 0.00 84 1016.9
20260831101556 79 225 3.0 7.0 0.00 0.00 0.00 84 1017.1
20260831101016 79 203 2.0 7.0 0.00 0.00 0.00 83 1017.0
20260831100536 79 203 2.0 8.0 0.00 0.00 0.00 83 1017.0
20260831100016 79 203 2.0 7.0 0.00 0.00 0.00 83 1017.1
20260831095536 79 225 3.0 7.0 0.00 0.00 0.00 83 1017.1
20260831095016 79 203 3.0 9.0 0.00 0.00 0.00 83 1016.9
20260831094516 79 203 2.0 10.0 0.00 0.00 0.00 83 1016.9
20260831094036 79 225 2.0 7.0 0.00 0.00 0.00 83 1016.9
20260831093536 79 225 3.0 9.0 0.00 0.00 0.00 83 1016.9
20260831093015 79 203 3.0 7.0 0.00 0.00 0.00 82 1016.9
20260831092516 79 225 2.0 6.0 0.00 0.00 0.00 82 1016.9
20260831092016 79 225 2.0 6.0 0.00 0.00 0.00 82 1016.8
20260831091516 79 203 3.0 8.0 0.00 0.00 0.00 82 1016.8
20260831091017 79 180 2.0 7.0 0.00 0.00 0.00 81 1016.8
20260831090516 79 225 3.0 9.0 0.00 0.00 0.00 81 1016.8
20260831090016 79 203 1.0 7.0 0.00 0.00 0.00 80 1016.8
20260831085516 80 203 1.0 5.0 0.00 0.00 0.00 80 1016.8
20260831085016 80 203 1.0 5.0 0.00 0.00 0.00 80 1016.9
20260831084515 80 180 2.0 5.0 0.00 0.00 0.00 80 1016.9
20260831084036 80 180 2.0 7.0 0.00 0.00 0.00 80 1016.9
20260831083516 80 225 2.0 6.0 0.00 0.00 0.00 79 1017.0
20260831083015 80 203 3.0 10.0 0.00 0.00 0.00 79 1017.0
20260831082516 80 203 3.0 8.0 0.00 0.00 0.00 78 1017.0
20260831082015 80 180 2.0 5.0 0.00 0.00 0.00 77 1017.0
20260831081516 80 180 1.0 6.0 0.00 0.00 0.00 77 1017.0
20260831081016 80 203 2.0 8.0 0.00 0.00 0.00 77 1016.9
20260831080515 80 203 3.0 8.0 0.00 0.00 0.00 76 1016.9
20260831080016 81 203 3.0 9.0 0.00 0.00 0.00 76 1016.9
20260831075535 81 203 2.0 6.0 0.00 0.00 0.00 76 1016.9
20260831075016 81 180 2.0 6.0 0.00 0.00 0.00 76 1017.0
20260831074015 81 180 3.0 10.0 0.00 0.00 0.00 75 1016.9
20260831073536 81 203 3.0 9.0 0.00 0.00 0.00 75 1016.9
20260831073015 81 180 4.0 12.0 0.00 0.00 0.00 74 1017.0
20260831072515 81 180 4.0 11.0 0.00 0.00 0.00 74 1017.0
20260831072015 82 180 4.0 10.0 0.00 0.00 0.00 73 1017.1
20260831071515 82 203 3.0 8.0 0.00 0.00 0.00 73 1017.1
20260831071015 82 203 3.0 7.0 0.00 0.00 0.00 73 1017.0
20260831070515 82 203 4.0 8.0 0.00 0.00 0.00 72 1017.1
20260831070036 82 180 2.0 8.0 0.00 0.00 0.00 72 1016.9
20260831065515 82 180 2.0 7.0 0.00 0.00 0.00 71 1017.1
20260831065016 82 203 2.0 5.0 0.00 0.00 0.00 71 1017.0
20260831064515 83 203 2.0 7.0 0.00 0.00 0.00 70 1017.1
20260831064015 83 203 3.0 7.0 0.00 0.00 0.00 70 1017.2
20260831063515 83 203 2.0 6.0 0.00 0.00 0.00 69 1017.2
20260831063036 83 203 3.0 9.0 0.00 0.00 0.00 69 1017.3
20260831062515 83 203 3.0 8.0 0.00 0.00 0.00 68 1017.2
20260831062015 84 203 4.0 12.0 0.00 0.00 0.00 68 1017.2
20260831061515 84 180 4.0 10.0 0.00 0.00 0.00 68 1017.2
20260831061015 84 180 4.0 8.0 0.00 0.00 0.00 67 1017.1
20260831060516 84 203 4.0 9.0 0.00 0.00 0.00 67 1017.1
20260831060015 84 203 3.0 8.0 0.00 0.00 0.00 67 1017.0
20260831055516 84 180 3.0 10.0 0.00 0.00 0.00 66 1017.0
20260831055015 84 158 2.0 6.0 0.00 0.00 0.00 66 1016.8
20260831054516 84 180 2.0 4.0 0.00 0.00 0.00 65 1016.9
20260831054015 84 180 2.0 7.0 0.00 0.00 0.00 65 1017.0
20260831053515 85 158 2.0 6.0 0.00 0.00 0.00 64 1016.9
20260831053015 85 158 2.0 9.0 0.00 0.00 0.00 64 1017.0
20260831052515 85 158 3.0 8.0 0.00 0.00 0.00 63 1017.0
20260831052015 85 158 4.0 10.0 0.00 0.00 0.00 63 1016.9
20260831051515 85 180 3.0 9.0 0.00 0.00 0.00 62 1016.8
20260831051015 85 180 3.0 9.0 0.00 0.00 0.00 62 1016.8
20260831050515 85 180 3.0 9.0 0.00 0.00 0.00 62 1016.7
20260831050015 85 180 3.0 9.0 0.00 0.00 0.00 62 1016.8
20260831045536 86 203 4.0 11.0 0.00 0.00 0.00 61 1016.8
20260831045036 86 203 4.0 11.0 0.00 0.00 0.00 61 1016.8
20260831044636 86 203 4.0 11.0 0.00 0.00 0.00 60 1016.7
20260831044056 86 180 3.0 8.0 0.00 0.00 0.00 60 1016.6
20260831043516 86 180 3.0 7.0 0.00 0.00 0.00 60 1016.6
20260831043016 87 158 5.0 13.0 0.00 0.00 0.00 59 1016.7
20260831042516 87 180 7.0 14.0 0.00 0.00 0.00 59 1016.7
20260831042036 87 158 5.0 12.0 0.00 0.00 0.00 59 1016.5
20260831041516 87 180 6.0 14.0 0.00 0.00 0.00 59 1016.7
20260831041016 87 158 4.0 10.0 0.00 0.00 0.00 59 1016.7
20260831040536 87 158 4.0 11.0 0.00 0.00 0.00 59 1016.6
20260831040056 87 158 5.0 12.0 0.00 0.00 0.00 59 1016.6
20260831035516 87 180 4.0 11.0 0.00 0.00 0.00 59 1016.7
20260831035017 87 158 4.0 12.0 0.00 0.00 0.00 58 1016.4
20260831034516 87 158 5.0 13.0 0.00 0.00 0.00 58 1016.3
20260831034016 88 158 6.0 12.0 0.00 0.00 0.00 58 1016.6
20260831033516 88 158 4.0 13.0 0.00 0.00 0.00 58 1016.2
20260831033016 88 158 4.0 10.0 0.00 0.00 0.00 58 1016.1
20260831032516 88 158 5.0 17.0 0.00 0.00 0.00 58 1016.1
20260831032015 88 135 4.0 12.0 0.00 0.00 0.00 58 1016.1
20260831031536 88 135 6.0 13.0 0.00 0.00 0.00 58 1016.0
20260831031015 88 158 6.0 13.0 0.00 0.00 0.00 58 1015.9
20260831030516 88 135 6.0 15.0 0.00 0.00 0.00 58 1015.8
20260831030038 88 158 5.0 11.0 0.00 0.00 0.00 58 1015.7
20260831025516 88 135 5.0 12.0 0.00 0.00 0.00 58 1015.6
20260831025015 89 158 5.0 12.0 0.00 0.00 0.00 58 1015.5
20260831024516 89 158 5.0 12.0 0.00 0.00 0.00 57 1015.4
20260831024016 89 158 6.0 19.0 0.00 0.00 0.00 56 1015.5
20260831023515 89 158 7.0 14.0 0.00 0.00 0.00 56 1015.5
20260831023016 90 135 5.0 14.0 0.00 0.00 0.00 55 1015.3
20260831022516 90 158 7.0 15.0 0.00 0.00 0.00 54 1015.3
20260831022016 90 135 6.0 14.0 0.00 0.00 0.00 53 1015.1
20260831021536 90 135 7.0 17.0 0.00 0.00 0.00 52 1014.9
20260831021016 90 135 7.0 16.0 0.00 0.00 0.00 50 1014.9
20260831020515 90 135 4.0 15.0 0.00 0.00 0.00 47 1014.7
20260831020016 90 135 3.0 9.0 0.00 0.00 0.00 46 1014.7
20260831015515 90 135 3.0 6.0 0.00 0.00 0.00 46 1014.6
20260831015016 90 135 2.0 5.0 0.00 0.00 0.00 46 1014.5
20260831014516 90 135 2.0 3.0 0.00 0.00 0.00 46 1014.4
20260831014015 91 135 2.0 3.0 0.00 0.00 0.00 45 1014.3
20260831013515 91 135 2.0 6.0 0.00 0.00 0.00 45 1014.2
20260831013016 91 113 2.0 5.0 0.00 0.00 0.00 45 1014.2
20260831012515 91 135 2.0 5.0 0.00 0.00 0.00 45 1014.2
20260831012016 91 135 3.0 5.0 0.00 0.00 0.00 45 1014.1
20260831011515 92 135 3.0 5.0 0.00 0.00 0.00 45 1014.2
20260831011015 92 135 3.0 7.0 0.00 0.00 0.00 45 1014.1
20260831010515 92 135 3.0 9.0 0.00 0.00 0.00 44 1014.2
20260831010015 92 158 3.0 7.0 0.00 0.00 0.00 45 1014.3
20260831005535 93 135 4.0 8.0 0.00 0.00 0.00 44 1014.2
20260831005015 93 135 3.0 8.0 0.00 0.00 0.00 44 1014.3
20260831004515 93 135 2.0 7.0 0.00 0.00 0.00 43 1014.2
20260831004015 93 158 2.0 7.0 0.00 0.00 0.00 43 1014.1